IBE468 SBSV-LEMD

Flight info

Callsign IBE468
Flight time N/A
Altitude 35000
Route ARURU DCT AKPAS UZ14 AMBET UN857 FNR UB623 CVS UN873 IPERA N873 GDV N858 VASTO UN858 PESAS N858 PARKA Z165 SOTUK
Aircraft A359/H-SDE2E3GHIJ3J4J5LM1ORWXY/LB1D1

Departure

Time 2026-05-09 01:49
Airport Deputado Luiz Eduardo Magalhães International Airport (SBSV)

Arrival

Time N/A
Airport Adolfo Suárez Madrid–Barajas Airport (LEMD)
Time Latitude Longitude Altitude Speed Heading
2026-05-09 01:18 -12.91492 -38.33281 75 ft 0 kts 348°
2026-05-09 01:34 -12.91504 -38.33279 75 ft 2 kts
2026-05-09 01:35 -12.91519 -38.33281 75 ft 2 kts 19°
2026-05-09 01:35 -12.91532 -38.33288 75 ft 2 kts 34°
2026-05-09 01:35 -12.91544 -38.33297 75 ft 2 kts 49°
2026-05-09 01:35 -12.91552 -38.33310 75 ft 2 kts 64°
2026-05-09 01:36 -12.91558 -38.33324 75 ft 2 kts 79°
2026-05-09 01:36 -12.91560 -38.33339 75 ft 2 kts 82°
2026-05-09 01:36 -12.91560 -38.33345 75 ft 0 kts 81°
2026-05-09 01:39 -12.91560 -38.33344 75 ft 0 kts 81°
2026-05-09 01:39 -12.91559 -38.33334 75 ft 4 kts 81°
2026-05-09 01:40 -12.91550 -38.33287 75 ft 8 kts 78°
2026-05-09 01:40 -12.91538 -38.33231 75 ft 8 kts 78°
2026-05-09 01:40 -12.91522 -38.33172 75 ft 8 kts 64°
2026-05-09 01:40 -12.91476 -38.33131 75 ft 9 kts 24°
2026-05-09 01:41 -12.91410 -38.33123 75 ft 9 kts 351°
2026-05-09 01:41 -12.91344 -38.33135 75 ft 3 kts 349°
2026-05-09 01:41 -12.91335 -38.33137 75 ft 4 kts 347°
2026-05-09 01:41 -12.91284 -38.33149 75 ft 8 kts 347°
2026-05-09 01:42 -12.91228 -38.33164 75 ft 7 kts 333°
2026-05-09 01:42 -12.91202 -38.33208 75 ft 7 kts 276°
2026-05-09 01:42 -12.91209 -38.33263 75 ft 8 kts 259°
2026-05-09 01:42 -12.91213 -38.33327 75 ft 9 kts 274°
2026-05-09 01:43 -12.91207 -38.33359 75 ft 0 kts 286°
2026-05-09 01:44 -12.91207 -38.33360 75 ft 0 kts 286°
2026-05-09 01:45 -12.91204 -38.33369 75 ft 4 kts 285°
2026-05-09 01:45 -12.91194 -38.33420 75 ft 9 kts 278°
2026-05-09 01:45 -12.91193 -38.33483 75 ft 7 kts 262°
2026-05-09 01:45 -12.91196 -38.33538 75 ft 7 kts 281°
2026-05-09 01:46 -12.91168 -38.33584 75 ft 6 kts 322°
2026-05-09 01:46 -12.91138 -38.33596 75 ft 2 kts 10°
2026-05-09 01:46 -12.91126 -38.33580 75 ft 3 kts 62°
2026-05-09 01:46 -12.91120 -38.33558 75 ft 3 kts 78°
2026-05-09 01:47 -12.91118 -38.33549 75 ft 0 kts 78°
2026-05-09 01:48 -12.91118 -38.33548 75 ft 0 kts 77°
2026-05-09 01:48 -12.91071 -38.33320 75 ft 69 kts 78°
2026-05-09 01:48 -12.90924 -38.32587 76 ft 136 kts 78°
2026-05-09 01:48 -12.90688 -38.31462 204 ft 177 kts 78°
2026-05-09 01:49 -12.90428 -38.30270 956 ft 173 kts 77°
2026-05-09 01:49 -12.90141 -38.29094 1674 ft 171 kts 77°
2026-05-09 01:49 -12.89763 -38.27949 2128 ft 176 kts 57°
2026-05-09 01:49 -12.88763 -38.27211 2397 ft 190 kts 15°
2026-05-09 01:50 -12.87406 -38.27257 2736 ft 202 kts 350°
2026-05-09 01:50 -12.85975 -38.27494 3089 ft 214 kts 354°
2026-05-09 01:50 -12.84464 -38.27643 3431 ft 228 kts 356°
2026-05-09 01:50 -12.82828 -38.27771 3769 ft 246 kts 356°
2026-05-09 01:51 -12.81047 -38.27899 4182 ft 263 kts 360°
2026-05-09 01:51 -12.79251 -38.27541 4630 ft 273 kts 31°
2026-05-09 01:51 -12.77770 -38.26353 5353 ft 275 kts 41°
2026-05-09 01:51 -12.76266 -38.25151 6113 ft 278 kts 37°
2026-05-09 01:52 -12.74667 -38.23988 6843 ft 282 kts 36°
2026-05-09 01:52 -12.73056 -38.22848 7562 ft 286 kts 36°
2026-05-09 01:52 -12.71405 -38.21697 8282 ft 289 kts 35°
2026-05-09 01:52 -12.69758 -38.20559 8977 ft 293 kts 35°
2026-05-09 01:53 -12.68050 -38.19384 9674 ft 296 kts 35°
2026-05-09 01:53 -12.66347 -38.18218 10336 ft 300 kts 35°
2026-05-09 01:53 -12.64581 -38.17008 10742 ft 314 kts 34°
2026-05-09 01:53 -12.62709 -38.15728 11070 ft 330 kts 34°
2026-05-09 01:54 -12.60764 -38.14399 11389 ft 347 kts 34°
2026-05-09 01:54 -12.58703 -38.12992 11705 ft 363 kts 34°
2026-05-09 01:54 -12.56557 -38.11528 12013 ft 379 kts 34°
2026-05-09 01:54 -12.54343 -38.10019 12313 ft 395 kts 34°
2026-05-09 01:55 -12.52005 -38.08425 12730 ft 407 kts 34°
2026-05-09 01:55 -12.49653 -38.06824 13379 ft 412 kts 34°
2026-05-09 01:55 -12.47272 -38.05203 14087 ft 415 kts 34°
2026-05-09 01:55 -12.44840 -38.03548 14781 ft 418 kts 34°
2026-05-09 01:56 -12.42432 -38.01911 15442 ft 422 kts 34°
2026-05-09 01:56 -12.39973 -38.00238 16099 ft 426 kts 35°
2026-05-09 01:56 -12.37523 -37.98573 16735 ft 429 kts 35°
2026-05-09 01:56 -12.35009 -37.96864 17374 ft 433 kts 35°
2026-05-09 01:57 -12.32503 -37.95161 17996 ft 436 kts 35°
2026-05-09 01:57 -12.29989 -37.93453 18600 ft 439 kts 35°
2026-05-09 01:57 -12.27436 -37.91720 19193 ft 443 kts 35°
2026-05-09 01:57 -12.24862 -37.89973 19774 ft 446 kts 35°
2026-05-09 01:58 -12.22302 -37.88235 20336 ft 449 kts 35°
2026-05-09 01:58 -12.19664 -37.86446 20901 ft 452 kts 35°
2026-05-09 01:58 -12.17075 -37.84690 21443 ft 455 kts 35°
2026-05-09 01:58 -12.14442 -37.82904 21984 ft 458 kts 35°
2026-05-09 01:59 -12.11752 -37.81082 22527 ft 461 kts 35°
2026-05-09 01:59 -12.09098 -37.79284 23048 ft 464 kts 35°
2026-05-09 01:59 -12.06395 -37.77455 23570 ft 467 kts 35°
2026-05-09 01:59 -12.03708 -37.75638 24075 ft 469 kts 35°
2026-05-09 02:00 -12.00991 -37.73799 24571 ft 472 kts 35°
2026-05-09 02:00 -11.98251 -37.71943 25052 ft 475 kts 36°
2026-05-09 02:00 -11.95556 -37.69994 25529 ft 476 kts 39°
2026-05-09 02:00 -11.92963 -37.67901 25984 ft 478 kts 41°
2026-05-09 02:01 -11.90444 -37.65637 26426 ft 480 kts 44°
2026-05-09 02:01 -11.87998 -37.63343 26859 ft 482 kts 44°
2026-05-09 02:01 -11.85512 -37.61013 27276 ft 485 kts 44°
2026-05-09 02:01 -11.83035 -37.58688 27684 ft 487 kts 44°
2026-05-09 02:02 -11.80562 -37.56367 28173 ft 487 kts 44°
2026-05-09 02:02 -11.78067 -37.54024 28775 ft 484 kts 44°
2026-05-09 02:02 -11.75630 -37.51737 29361 ft 481 kts 44°
2026-05-09 02:02 -11.73185 -37.49441 29906 ft 478 kts 44°
2026-05-09 02:03 -11.70728 -37.47134 30409 ft 476 kts 44°
2026-05-09 02:03 -11.68294 -37.44849 30868 ft 474 kts 44°
2026-05-09 02:03 -11.65914 -37.42615 31292 ft 473 kts 44°
2026-05-09 02:03 -11.63498 -37.40348 31708 ft 471 kts 44°
2026-05-09 02:04 -11.61087 -37.38087 32104 ft 470 kts 44°
2026-05-09 02:04 -11.58709 -37.35857 32479 ft 468 kts 44°
2026-05-09 02:04 -11.56321 -37.33614 32836 ft 466 kts 44°
2026-05-09 02:04 -11.53950 -37.31375 33171 ft 465 kts 44°
2026-05-09 02:05 -11.51575 -37.29135 33487 ft 464 kts 44°
2026-05-09 02:05 -11.49209 -37.26907 33783 ft 463 kts 44°
2026-05-09 02:05 -11.46865 -37.24706 34060 ft 462 kts 44°
2026-05-09 02:05 -11.44495 -37.22482 34328 ft 461 kts 44°
2026-05-09 02:06 -11.42153 -37.20289 34568 ft 460 kts 44°
2026-05-09 02:06 -11.39820 -37.18103 34787 ft 459 kts 44°
2026-05-09 02:06 -11.37454 -37.15888 34962 ft 459 kts 44°
2026-05-09 02:07 -11.32759 -37.11491 34991 ft 466 kts 43°
2026-05-09 02:07 -11.27970 -37.07010 34992 ft 470 kts 43°
2026-05-09 02:08 -11.23145 -37.02501 34992 ft 471 kts 43°
2026-05-09 02:08 -11.18335 -36.98009 34993 ft 472 kts 42°
2026-05-09 02:09 -11.13471 -36.93469 34992 ft 473 kts 42°
2026-05-09 02:09 -11.08658 -36.88982 34991 ft 473 kts 42°
2026-05-09 02:10 -11.07838 -36.88218 34992 ft 473 kts 42°
2026-05-09 02:10 -10.99660 -36.80593 34992 ft 473 kts 42°
2026-05-09 02:11 -10.94793 -36.76059 34992 ft 474 kts 41°
2026-05-09 02:11 -10.89946 -36.71553 34992 ft 475 kts 41°
2026-05-09 02:12 -10.85023 -36.67025 34991 ft 477 kts 39°
2026-05-09 02:12 -10.79860 -36.62905 34990 ft 476 kts 34°
2026-05-09 02:13 -10.74457 -36.59049 34992 ft 476 kts 33°
2026-05-09 02:13 -10.69057 -36.55210 34992 ft 476 kts 33°
2026-05-09 02:14 -10.63648 -36.51364 34992 ft 476 kts 33°
2026-05-09 02:14 -10.58236 -36.47517 34992 ft 476 kts 33°
2026-05-09 02:15 -10.52819 -36.43666 34992 ft 476 kts 33°
2026-05-09 02:15 -10.47429 -36.39835 34992 ft 476 kts 33°
2026-05-09 02:16 -10.41983 -36.35966 34992 ft 476 kts 33°
2026-05-09 02:16 -10.36618 -36.32138 34992 ft 475 kts 33°
2026-05-09 02:17 -10.31224 -36.28283 34992 ft 475 kts 33°
2026-05-09 02:17 -10.25827 -36.24443 34992 ft 475 kts 33°
2026-05-09 02:18 -10.20419 -36.20604 34992 ft 475 kts 33°
2026-05-09 02:18 -10.15005 -36.16766 34992 ft 475 kts 33°
2026-05-09 02:19 -10.09603 -36.12939 34992 ft 475 kts 33°
2026-05-09 02:19 -10.04200 -36.09113 34992 ft 475 kts 33°
2026-05-09 02:20 -9.98790 -36.05284 34992 ft 475 kts 33°
2026-05-09 02:20 -9.93390 -36.01463 34992 ft 475 kts 33°
2026-05-09 02:21 -9.87965 -35.97631 34992 ft 475 kts 33°
2026-05-09 02:21 -9.82549 -35.93822 34992 ft 475 kts 33°
2026-05-09 02:22 -9.77138 -35.90009 34992 ft 475 kts 33°
2026-05-09 02:22 -9.71746 -35.86204 34992 ft 475 kts 33°
2026-05-09 02:23 -9.66315 -35.82370 34992 ft 475 kts 33°
2026-05-09 02:23 -9.60898 -35.78547 34992 ft 475 kts 33°
2026-05-09 02:24 -9.55511 -35.74747 34992 ft 475 kts 33°
2026-05-09 02:24 -9.50073 -35.70911 34992 ft 475 kts 33°
2026-05-09 02:25 -9.44682 -35.67111 34992 ft 475 kts 33°
2026-05-09 02:25 -9.39260 -35.63291 34992 ft 475 kts 33°
2026-05-09 02:26 -9.33852 -35.59484 34992 ft 475 kts 33°
2026-05-09 02:26 -9.28426 -35.55667 34992 ft 475 kts 33°
2026-05-09 02:27 -9.23003 -35.51852 34992 ft 475 kts 33°
2026-05-09 02:27 -9.17600 -35.48045 34992 ft 475 kts 33°
2026-05-09 02:28 -9.12171 -35.44222 34992 ft 475 kts 33°
2026-05-09 02:28 -9.06794 -35.40439 34993 ft 475 kts 33°
2026-05-09 02:29 -9.01363 -35.36622 34993 ft 474 kts 33°
2026-05-09 02:29 -8.95968 -35.32824 34992 ft 474 kts 32°
2026-05-09 02:30 -8.90584 -35.29028 34991 ft 474 kts 32°
2026-05-09 02:30 -8.85164 -35.25226 34986 ft 474 kts 32°
2026-05-09 02:31 -8.79773 -35.21440 34976 ft 474 kts 32°
2026-05-09 02:31 -8.74363 -35.17644 34970 ft 474 kts 32°
2026-05-09 02:32 -8.68921 -35.13827 34968 ft 474 kts 32°
2026-05-09 02:32 -8.63513 -35.10036 34968 ft 474 kts 32°
2026-05-09 02:33 -8.58125 -35.06261 34967 ft 474 kts 32°
2026-05-09 02:33 -8.52714 -35.02471 34968 ft 474 kts 32°
2026-05-09 02:34 -8.47326 -34.98697 34968 ft 474 kts 32°
2026-05-09 02:34 -8.41921 -34.94915 34968 ft 474 kts 32°
2026-05-09 02:35 -8.36487 -34.91114 34968 ft 473 kts 32°
2026-05-09 02:35 -8.31081 -34.87335 34968 ft 473 kts 31°
2026-05-09 02:36 -8.25708 -34.83585 34965 ft 472 kts 31°
2026-05-09 02:36 -8.20973 -34.78984 34970 ft 482 kts 50°
2026-05-09 02:37 -8.17263 -34.73323 34968 ft 484 kts 54°
2026-05-09 02:37 -8.13681 -34.67559 34968 ft 484 kts 54°
2026-05-09 02:38 -8.10124 -34.61809 34968 ft 484 kts 54°
2026-05-09 02:38 -8.06580 -34.56076 34968 ft 484 kts 54°
2026-05-09 02:39 -8.02981 -34.50312 34959 ft 482 kts 50°
2026-05-09 02:39 -8.00823 -34.47800 34967 ft 476 kts 39°
2026-05-09 02:39 -7.98225 -34.45785 34965 ft 470 kts 28°
2026-05-09 02:40 -7.92424 -34.42818 34968 ft 467 kts 22°
2026-05-09 02:40 -7.86292 -34.40990 34962 ft 460 kts
2026-05-09 02:41 -7.79980 -34.41645 34961 ft 457 kts 352°
2026-05-09 02:41 -7.73660 -34.41631 34969 ft 461 kts
2026-05-09 02:42 -7.67469 -34.39995 34970 ft 466 kts 19°
2026-05-09 02:42 -7.61612 -34.37116 34968 ft 468 kts 24°
2026-05-09 02:43 -7.55858 -34.34103 34967 ft 468 kts 24°
2026-05-09 02:43 -7.50092 -34.31060 34967 ft 468 kts 24°
2026-05-09 02:44 -7.44319 -34.28035 34968 ft 468 kts 24°
2026-05-09 02:44 -7.38557 -34.25031 34968 ft 468 kts 24°
2026-05-09 02:45 -7.32791 -34.22033 34968 ft 468 kts 24°
2026-05-09 02:45 -7.27015 -34.19032 34968 ft 468 kts 24°
2026-05-09 02:46 -7.21256 -34.16041 34968 ft 468 kts 24°
2026-05-09 02:46 -7.15449 -34.13027 34968 ft 468 kts 24°
2026-05-09 02:47 -7.09676 -34.10032 34968 ft 468 kts 24°
2026-05-09 02:47 -7.03916 -34.07044 34968 ft 468 kts 24°
2026-05-09 02:48 -6.98134 -34.04046 34967 ft 469 kts 24°
2026-05-09 02:48 -6.92312 -34.01028 34967 ft 471 kts 24°
2026-05-09 02:49 -6.86496 -33.98020 34968 ft 472 kts 24°
2026-05-09 02:49 -6.80663 -33.95011 34968 ft 473 kts 24°
2026-05-09 02:50 -6.74833 -33.91996 34968 ft 473 kts 24°
2026-05-09 02:50 -6.69016 -33.88985 34968 ft 473 kts 24°
2026-05-09 02:51 -6.63173 -33.85961 34968 ft 472 kts 24°
2026-05-09 02:51 -6.57366 -33.82955 34968 ft 472 kts 24°
2026-05-09 02:52 -6.51557 -33.79950 34968 ft 472 kts 24°
2026-05-09 02:52 -6.45733 -33.76936 34968 ft 472 kts 24°
2026-05-09 02:53 -6.39909 -33.73925 34968 ft 472 kts 24°
2026-05-09 02:53 -6.34064 -33.70902 34968 ft 472 kts 24°
2026-05-09 02:54 -6.28240 -33.67891 34968 ft 472 kts 24°
2026-05-09 02:54 -6.22422 -33.64885 34968 ft 472 kts 24°
2026-05-09 02:55 -6.16595 -33.61874 34968 ft 472 kts 24°
2026-05-09 02:55 -6.10777 -33.58868 34968 ft 472 kts 24°
2026-05-09 02:56 -6.04975 -33.55872 34968 ft 472 kts 24°
2026-05-09 02:56 -5.99144 -33.52861 34968 ft 472 kts 24°
2026-05-09 02:57 -5.93306 -33.49848 34968 ft 472 kts 24°
2026-05-09 02:57 -5.87496 -33.46853 34968 ft 472 kts 24°
2026-05-09 02:58 -5.81665 -33.43860 34968 ft 472 kts 24°
2026-05-09 02:58 -5.75849 -33.40868 34968 ft 472 kts 24°
2026-05-09 02:59 -5.70019 -33.37864 34968 ft 472 kts 24°
2026-05-09 02:59 -5.64217 -33.34873 34967 ft 472 kts 24°
2026-05-09 03:00 -5.58409 -33.31851 34965 ft 472 kts 24°
2026-05-09 03:00 -5.52605 -33.28838 34960 ft 472 kts 24°
2026-05-09 03:01 -5.46807 -33.25843 34952 ft 472 kts 24°
2026-05-09 03:01 -5.40979 -33.22839 34945 ft 472 kts 24°
2026-05-09 03:02 -5.35147 -33.19835 34941 ft 472 kts 24°
2026-05-09 03:02 -5.29342 -33.16846 34939 ft 472 kts 24°
2026-05-09 03:03 -5.23503 -33.13841 34939 ft 472 kts 24°
2026-05-09 03:03 -5.17692 -33.10850 34939 ft 472 kts 24°
2026-05-09 03:04 -5.11874 -33.07858 34939 ft 471 kts 24°
2026-05-09 03:04 -5.06077 -33.04878 34940 ft 470 kts 25°
2026-05-09 03:05 -5.00279 -33.01899 34940 ft 468 kts 25°
2026-05-09 03:05 -4.94533 -32.98947 34940 ft 467 kts 25°
2026-05-09 03:06 -4.88788 -32.95993 34941 ft 466 kts 25°
2026-05-09 03:06 -4.83014 -32.93039 34939 ft 466 kts 26°
2026-05-09 03:07 -4.77276 -32.90098 34939 ft 466 kts 26°
2026-05-09 03:07 -4.71492 -32.87129 34939 ft 466 kts 26°
2026-05-09 03:08 -4.65772 -32.84192 34939 ft 466 kts 26°
2026-05-09 03:08 -4.60003 -32.81229 34939 ft 466 kts 26°
2026-05-09 03:09 -4.54279 -32.78276 34939 ft 466 kts 26°
2026-05-09 03:09 -4.48500 -32.75293 34940 ft 466 kts 26°
2026-05-09 03:10 -4.42767 -32.72338 34939 ft 466 kts 26°
2026-05-09 03:10 -4.37025 -32.69380 34939 ft 466 kts 26°
2026-05-09 03:11 -4.31273 -32.66418 34939 ft 466 kts 26°
2026-05-09 03:11 -4.25514 -32.63452 34939 ft 466 kts 26°
2026-05-09 03:12 -4.19759 -32.60490 34940 ft 466 kts 26°
2026-05-09 03:12 -4.14030 -32.57542 34939 ft 466 kts 26°
2026-05-09 03:13 -4.05412 -32.53108 34939 ft 466 kts 26°
2026-05-09 03:13 -3.99636 -32.50137 34939 ft 466 kts 26°
2026-05-09 03:14 -3.93886 -32.47181 34939 ft 466 kts 26°
2026-05-09 03:14 -3.88155 -32.44237 34940 ft 466 kts 26°
2026-05-09 03:15 -3.82386 -32.41254 34940 ft 466 kts 27°
2026-05-09 03:15 -3.76683 -32.38240 34939 ft 466 kts 27°
2026-05-09 03:16 -3.70952 -32.35209 34939 ft 466 kts 27°
2026-05-09 03:16 -3.65259 -32.32177 34939 ft 466 kts 27°
2026-05-09 03:17 -3.59538 -32.29136 34939 ft 466 kts 27°
2026-05-09 03:17 -3.53836 -32.26121 34939 ft 467 kts 26°
2026-05-09 03:18 -3.48106 -32.23097 34939 ft 467 kts 26°
2026-05-09 03:18 -3.42380 -32.20080 34939 ft 467 kts 26°
2026-05-09 03:19 -3.36634 -32.17055 34939 ft 467 kts 26°
2026-05-09 03:19 -3.30931 -32.14051 34939 ft 467 kts 26°
2026-05-09 03:20 -3.25129 -32.11200 34939 ft 466 kts 22°
2026-05-09 03:20 -3.19165 -32.08643 34939 ft 466 kts 22°
2026-05-09 03:21 -3.13220 -32.06117 34939 ft 466 kts 22°
2026-05-09 03:21 -3.07293 -32.03598 34939 ft 466 kts 22°
2026-05-09 03:22 -3.01323 -32.01063 34939 ft 466 kts 22°
2026-05-09 03:22 -2.95388 -31.98543 34939 ft 469 kts 22°
2026-05-09 03:23 -2.89361 -31.95984 34939 ft 471 kts 22°
2026-05-09 03:23 -2.83335 -31.93436 34939 ft 473 kts 22°
2026-05-09 03:24 -2.77304 -31.90883 34939 ft 473 kts 22°
2026-05-09 03:24 -2.71303 -31.88337 34939 ft 472 kts 22°
2026-05-09 03:25 -2.65275 -31.85779 34939 ft 472 kts 22°
2026-05-09 03:25 -2.59223 -31.83210 34939 ft 472 kts 22°
2026-05-09 03:26 -2.53215 -31.80660 34939 ft 472 kts 22°
2026-05-09 03:26 -2.47178 -31.78097 34939 ft 472 kts 22°
2026-05-09 03:27 -2.41165 -31.75545 34939 ft 473 kts 22°
2026-05-09 03:27 -2.35122 -31.72981 34939 ft 473 kts 22°
2026-05-09 03:28 -2.29092 -31.70422 34939 ft 472 kts 22°
2026-05-09 03:28 -2.23068 -31.67866 34939 ft 473 kts 22°
2026-05-09 03:29 -2.17053 -31.65314 34939 ft 473 kts 22°
2026-05-09 03:29 -2.10988 -31.62741 34939 ft 473 kts 22°
2026-05-09 03:30 -2.04966 -31.60187 34939 ft 473 kts 22°
2026-05-09 03:30 -1.98944 -31.57632 34939 ft 473 kts 22°
2026-05-09 03:31 -1.92948 -31.55089 34939 ft 472 kts 22°
2026-05-09 03:31 -1.86883 -31.52522 34939 ft 472 kts 22°
2026-05-09 03:32 -1.80840 -31.49972 34939 ft 473 kts 22°
2026-05-09 03:32 -1.74834 -31.47432 34939 ft 473 kts 22°
2026-05-09 03:33 -1.68778 -31.44866 34939 ft 473 kts 22°
2026-05-09 03:33 -1.62750 -31.42311 34939 ft 473 kts 22°
2026-05-09 03:34 -1.56727 -31.39757 34939 ft 473 kts 22°
2026-05-09 03:34 -1.50720 -31.37211 34939 ft 472 kts 22°
2026-05-09 03:35 -1.44687 -31.34653 34938 ft 473 kts 22°
2026-05-09 03:35 -1.38653 -31.32066 34939 ft 473 kts 22°
2026-05-09 03:36 -1.32645 -31.29501 34939 ft 473 kts 22°
2026-05-09 03:36 -1.26595 -31.26932 34939 ft 473 kts 22°
2026-05-09 03:37 -1.20568 -31.24377 34939 ft 472 kts 22°
2026-05-09 03:37 -1.14537 -31.21822 34939 ft 473 kts 22°
2026-05-09 03:38 -1.08544 -31.19285 34939 ft 473 kts 22°
2026-05-09 03:38 -1.02497 -31.16725 34939 ft 473 kts 22°
2026-05-09 03:39 -0.96457 -31.14169 34939 ft 472 kts 22°
2026-05-09 03:39 -0.90437 -31.11625 34939 ft 473 kts 22°
2026-05-09 03:40 -0.84389 -31.09075 34939 ft 473 kts 22°
2026-05-09 03:40 -0.78404 -31.06451 34939 ft 473 kts 24°
2026-05-09 03:41 -0.72437 -31.03754 34939 ft 473 kts 24°
2026-05-09 03:41 -0.66453 -31.01059 34939 ft 473 kts 23°
2026-05-09 03:42 -0.60496 -30.98384 34939 ft 473 kts 23°
2026-05-09 03:42 -0.54508 -30.95699 34939 ft 473 kts 23°
2026-05-09 03:43 -0.48520 -30.93014 34939 ft 473 kts 23°
2026-05-09 03:43 -0.41552 -30.89892 34939 ft 473 kts 23°
2026-05-09 03:44 -0.36560 -30.87654 34940 ft 473 kts 23°
2026-05-09 03:44 -0.30588 -30.84978 34939 ft 473 kts 23°
2026-05-09 03:45 -0.24607 -30.82297 34939 ft 473 kts 23°
2026-05-09 03:45 -0.18639 -30.79623 34939 ft 473 kts 23°
2026-05-09 03:46 -0.12668 -30.76947 34939 ft 473 kts 23°
2026-05-09 03:46 -0.06692 -30.74269 34939 ft 473 kts 23°
2026-05-09 03:47 -0.00687 -30.71578 34939 ft 473 kts 23°
2026-05-09 03:47 0.05290 -30.68899 34939 ft 473 kts 23°
2026-05-09 03:48 0.11259 -30.66225 34940 ft 473 kts 23°
2026-05-09 03:48 0.17252 -30.63553 34939 ft 473 kts 23°
2026-05-09 03:49 0.23200 -30.60894 34939 ft 473 kts 23°
2026-05-09 03:49 0.30189 -30.57764 34939 ft 473 kts 23°
2026-05-09 03:50 0.35192 -30.55521 34939 ft 473 kts 23°
2026-05-09 03:50 0.41131 -30.52859 34939 ft 473 kts 23°
2026-05-09 03:51 0.48147 -30.49713 34939 ft 472 kts 23°
2026-05-09 03:51 0.53125 -30.47481 34940 ft 473 kts 23°
2026-05-09 03:52 0.59093 -30.44805 34939 ft 473 kts 23°
2026-05-09 03:52 0.65070 -30.42125 34939 ft 473 kts 23°
2026-05-09 03:53 0.71017 -30.39459 34939 ft 473 kts 23°
2026-05-09 03:53 0.77037 -30.36760 34939 ft 473 kts 23°
2026-05-09 03:54 0.82982 -30.34089 34939 ft 473 kts 23°
2026-05-09 03:54 0.88982 -30.31368 34940 ft 473 kts 23°
2026-05-09 03:55 0.94951 -30.28676 34939 ft 473 kts 23°
2026-05-09 03:55 1.00911 -30.26000 34940 ft 471 kts 23°
2026-05-09 03:56 1.06838 -30.23343 34940 ft 468 kts 24°
2026-05-09 03:56 1.12739 -30.20703 34940 ft 466 kts 24°
2026-05-09 03:57 1.18649 -30.18063 34939 ft 465 kts 24°
2026-05-09 03:57 1.24515 -30.15437 34939 ft 465 kts 24°
2026-05-09 03:58 1.30422 -30.12790 34939 ft 465 kts 24°
2026-05-09 03:58 1.36297 -30.10156 34939 ft 465 kts 24°
2026-05-09 03:59 1.42198 -30.07511 34939 ft 465 kts 24°
2026-05-09 03:59 1.48077 -30.04877 34939 ft 465 kts 24°
2026-05-09 04:00 1.53939 -30.02251 34939 ft 465 kts 24°
2026-05-09 04:00 1.59826 -29.99612 34939 ft 465 kts 24°
2026-05-09 04:01 1.65728 -29.96956 34939 ft 465 kts 24°
2026-05-09 04:01 1.71604 -29.94313 34939 ft 465 kts 24°
2026-05-09 04:02 1.77472 -29.91678 34939 ft 465 kts 24°
2026-05-09 04:02 1.83354 -29.89037 34939 ft 465 kts 24°
2026-05-09 04:03 1.89237 -29.86397 34939 ft 465 kts 24°
2026-05-09 04:03 1.95112 -29.83760 34939 ft 465 kts 24°
2026-05-09 04:04 2.00989 -29.81122 34939 ft 465 kts 24°
2026-05-09 04:04 2.06888 -29.78474 34939 ft 465 kts 24°
2026-05-09 04:05 2.12775 -29.75835 34939 ft 465 kts 24°
2026-05-09 04:05 2.19667 -29.72756 34939 ft 465 kts 24°
2026-05-09 04:06 2.24546 -29.70571 34939 ft 465 kts 24°
2026-05-09 04:06 2.30450 -29.67922 34939 ft 466 kts 24°
2026-05-09 04:07 2.36314 -29.65290 34939 ft 466 kts 24°
2026-05-09 04:07 2.43205 -29.62195 34939 ft 465 kts 24°
2026-05-09 04:08 2.48078 -29.60006 34939 ft 465 kts 24°
2026-05-09 04:08 2.53959 -29.57364 34939 ft 465 kts 24°
2026-05-09 04:09 2.59827 -29.54728 34939 ft 465 kts 24°
2026-05-09 04:09 2.66690 -29.51644 34939 ft 465 kts 24°
2026-05-09 04:10 2.71592 -29.49442 34939 ft 465 kts 24°
2026-05-09 04:10 2.78460 -29.46355 34939 ft 465 kts 24°
2026-05-09 04:11 2.83361 -29.44152 34939 ft 465 kts 24°
2026-05-09 04:11 2.89260 -29.41501 34939 ft 465 kts 24°
2026-05-09 04:12 2.96105 -29.38429 34938 ft 469 kts 25°
2026-05-09 04:12 3.02086 -29.35739 34938 ft 473 kts 25°
2026-05-09 04:13 3.07064 -29.33488 34939 ft 476 kts 25°
2026-05-09 04:13 3.14063 -29.30316 34939 ft 476 kts 25°
2026-05-09 04:14 3.20104 -29.27603 34939 ft 476 kts 25°
2026-05-09 04:14 3.26102 -29.24910 34939 ft 476 kts 25°
2026-05-09 04:15 3.32138 -29.22199 34939 ft 476 kts 25°
2026-05-09 04:15 3.38131 -29.19507 34939 ft 476 kts 25°
2026-05-09 04:16 3.44156 -29.16791 34939 ft 476 kts 25°
2026-05-09 04:16 3.50172 -29.14074 34939 ft 476 kts 25°
2026-05-09 04:17 3.56201 -29.11354 34939 ft 476 kts 25°
2026-05-09 04:17 3.61192 -29.09106 34939 ft 476 kts 25°
2026-05-09 04:18 3.68225 -29.05938 34927 ft 475 kts 25°
2026-05-09 04:18 3.74213 -29.03241 34917 ft 476 kts 25°
2026-05-09 04:19 3.80252 -29.00521 34914 ft 475 kts 25°
2026-05-09 04:19 3.86276 -28.97807 34913 ft 474 kts 25°
2026-05-09 04:20 3.92266 -28.95108 34913 ft 473 kts 25°
2026-05-09 04:20 3.98232 -28.92419 34913 ft 473 kts 25°
2026-05-09 04:21 4.04197 -28.89731 34913 ft 472 kts 25°
2026-05-09 04:22 4.13130 -28.85709 34913 ft 471 kts 25°
2026-05-09 04:22 4.19120 -28.83021 34913 ft 470 kts 25°
2026-05-09 04:23 4.25046 -28.80356 34913 ft 469 kts 25°
2026-05-09 04:23 4.30985 -28.77679 34913 ft 469 kts 25°
2026-05-09 04:24 4.36912 -28.75006 34913 ft 469 kts 25°
2026-05-09 04:24 4.42824 -28.72339 34913 ft 469 kts 25°
2026-05-09 04:25 4.48775 -28.69654 34913 ft 469 kts 25°
2026-05-09 04:25 4.54692 -28.66983 34913 ft 469 kts 25°
2026-05-09 04:26 4.60629 -28.64302 34913 ft 469 kts 25°
2026-05-09 04:26 4.66563 -28.61623 34913 ft 469 kts 25°
2026-05-09 04:27 4.72464 -28.58958 34913 ft 469 kts 25°
2026-05-09 04:27 4.78419 -28.56268 34913 ft 469 kts 25°
2026-05-09 04:28 4.84355 -28.53586 34913 ft 469 kts 25°
2026-05-09 04:28 4.90256 -28.50919 34913 ft 469 kts 25°
2026-05-09 04:29 4.96179 -28.48242 34913 ft 469 kts 25°
2026-05-09 04:29 5.02129 -28.45552 34913 ft 469 kts 25°
2026-05-09 04:30 5.08081 -28.42860 34913 ft 469 kts 25°
2026-05-09 04:30 5.14005 -28.40189 34913 ft 469 kts 25°
2026-05-09 04:31 5.19923 -28.37526 34913 ft 469 kts 25°
2026-05-09 04:31 5.25880 -28.34837 34913 ft 469 kts 25°
2026-05-09 04:32 5.31786 -28.32138 34913 ft 469 kts 25°
2026-05-09 04:32 5.37737 -28.29424 34913 ft 469 kts 25°
2026-05-09 04:33 5.43653 -28.26737 34913 ft 469 kts 25°
2026-05-09 04:33 5.49600 -28.24041 34913 ft 469 kts 25°
2026-05-09 04:34 5.55528 -28.21355 34913 ft 469 kts 25°
2026-05-09 04:34 5.61464 -28.18667 34913 ft 469 kts 25°
2026-05-09 04:35 5.67389 -28.15982 34922 ft 469 kts 25°
2026-05-09 04:35 5.73293 -28.13306 34944 ft 469 kts 25°
2026-05-09 04:36 5.79241 -28.10610 34970 ft 469 kts 25°
2026-05-09 04:36 5.85168 -28.07922 34985 ft 469 kts 25°
2026-05-09 04:37 5.91112 -28.05227 34990 ft 469 kts 25°
2026-05-09 04:37 5.96991 -28.02560 34992 ft 469 kts 25°
2026-05-09 04:38 6.02937 -27.99862 34992 ft 469 kts 25°
2026-05-09 04:38 6.08882 -27.97164 34992 ft 469 kts 25°
2026-05-09 04:39 6.14796 -27.94489 34992 ft 469 kts 25°
2026-05-09 04:39 6.20702 -27.91819 34992 ft 469 kts 25°
2026-05-09 04:40 6.26636 -27.89128 34992 ft 469 kts 25°
2026-05-09 04:40 6.32574 -27.86433 34992 ft 469 kts 25°
2026-05-09 04:41 6.38460 -27.83759 34992 ft 469 kts 25°
2026-05-09 04:41 6.44397 -27.81060 34992 ft 469 kts 25°
2026-05-09 04:42 6.50306 -27.78374 34992 ft 469 kts 25°
2026-05-09 04:42 6.56217 -27.75687 34992 ft 469 kts 25°
2026-05-09 04:43 6.62154 -27.72986 34992 ft 469 kts 25°
2026-05-09 04:43 6.68069 -27.70296 34992 ft 469 kts 25°
2026-05-09 04:44 6.74003 -27.67596 34992 ft 469 kts 25°
2026-05-09 04:44 6.79888 -27.64920 34992 ft 469 kts 25°
2026-05-09 04:45 6.85820 -27.62220 34992 ft 469 kts 25°
2026-05-09 04:45 6.91716 -27.59526 34992 ft 470 kts 25°
2026-05-09 04:46 6.97680 -27.56801 34991 ft 475 kts 24°
2026-05-09 04:46 7.03740 -27.54041 34990 ft 481 kts 24°
2026-05-09 04:47 7.09838 -27.51265 34992 ft 483 kts 24°
2026-05-09 04:47 7.15919 -27.48506 34992 ft 483 kts 24°
2026-05-09 04:48 7.22046 -27.45723 34992 ft 483 kts 24°
2026-05-09 04:48 7.28141 -27.42946 34992 ft 483 kts 24°
2026-05-09 04:49 7.34257 -27.40157 34992 ft 483 kts 24°
2026-05-09 04:49 7.40313 -27.37392 34992 ft 483 kts 24°
2026-05-09 04:50 7.46450 -27.34589 34991 ft 483 kts 24°
2026-05-09 04:50 7.52536 -27.31779 34992 ft 483 kts 24°
2026-05-09 04:51 7.58628 -27.28975 34992 ft 483 kts 24°
2026-05-09 04:51 7.64726 -27.26182 34992 ft 483 kts 24°
2026-05-09 04:52 7.70813 -27.23397 34992 ft 483 kts 24°
2026-05-09 04:52 7.76893 -27.20616 34992 ft 483 kts 24°
2026-05-09 04:53 7.82995 -27.17825 34992 ft 483 kts 24°
2026-05-09 04:53 7.89102 -27.15030 34992 ft 483 kts 24°
2026-05-09 04:54 7.95174 -27.12251 34992 ft 483 kts 24°
2026-05-09 04:54 8.01298 -27.09447 34992 ft 483 kts 24°
2026-05-09 04:55 8.07376 -27.06664 34992 ft 484 kts 24°
2026-05-09 04:55 8.13497 -27.03865 34992 ft 485 kts 24°
2026-05-09 04:56 8.19616 -27.01074 34992 ft 485 kts 24°
2026-05-09 04:56 8.25668 -26.98305 34992 ft 472 kts 24°
2026-05-09 04:57 8.31645 -26.95566 34992 ft 473 kts 24°
2026-05-09 04:57 8.37600 -26.92836 34992 ft 474 kts 24°
2026-05-09 04:58 8.43607 -26.90081 34992 ft 475 kts 24°
2026-05-09 04:58 8.49592 -26.87336 34992 ft 476 kts 24°
2026-05-09 04:59 8.55630 -26.84563 34992 ft 476 kts 24°
2026-05-09 04:59 8.61586 -26.81819 34992 ft 476 kts 24°
2026-05-09 05:00 8.67593 -26.79051 34992 ft 476 kts 24°
2026-05-09 05:00 8.73607 -26.76283 34992 ft 476 kts 24°
2026-05-09 05:01 8.79606 -26.73521 34992 ft 476 kts 24°
2026-05-09 05:01 8.85595 -26.70764 34992 ft 476 kts 24°
2026-05-09 05:02 8.91611 -26.67993 34992 ft 476 kts 24°
2026-05-09 05:02 8.97600 -26.65233 34992 ft 476 kts 24°
2026-05-09 05:03 9.03644 -26.62446 34991 ft 481 kts 24°
2026-05-09 05:03 9.09731 -26.59639 34991 ft 486 kts 24°
2026-05-09 05:04 9.15929 -26.56793 34992 ft 490 kts 24°
2026-05-09 05:04 9.22081 -26.53967 34992 ft 490 kts 24°
2026-05-09 05:05 9.28279 -26.51111 34992 ft 490 kts 24°
2026-05-09 05:05 9.34490 -26.48244 34992 ft 490 kts 24°
2026-05-09 05:06 9.40668 -26.45390 34992 ft 490 kts 24°
2026-05-09 05:06 9.46836 -26.42540 34992 ft 490 kts 24°
2026-05-09 05:07 9.53025 -26.39679 34992 ft 490 kts 24°
2026-05-09 05:07 9.59201 -26.36822 34992 ft 490 kts 24°
2026-05-09 05:08 9.65402 -26.33947 34992 ft 490 kts 24°
2026-05-09 05:08 9.71588 -26.31052 34992 ft 490 kts 24°
2026-05-09 05:09 9.77745 -26.28184 34992 ft 490 kts 24°
2026-05-09 05:09 9.83943 -26.25307 34992 ft 490 kts 24°
2026-05-09 05:10 9.90123 -26.22441 34992 ft 490 kts 24°
2026-05-09 05:10 9.96293 -26.19580 34992 ft 490 kts 24°
2026-05-09 05:11 10.02464 -26.16718 34992 ft 490 kts 24°
2026-05-09 05:11 10.08676 -26.13835 34992 ft 490 kts 24°
2026-05-09 05:12 10.14844 -26.10980 34992 ft 490 kts 24°
2026-05-09 05:12 10.21005 -26.08131 34992 ft 490 kts 24°
2026-05-09 05:13 10.27209 -26.05254 34992 ft 490 kts 24°
2026-05-09 05:13 10.33361 -26.02396 34992 ft 490 kts 24°
2026-05-09 05:14 10.39539 -25.99523 34992 ft 490 kts 24°
2026-05-09 05:14 10.45756 -25.96631 34992 ft 490 kts 24°
2026-05-09 05:15 10.51897 -25.93773 34992 ft 490 kts 24°
2026-05-09 05:15 10.58117 -25.90877 34992 ft 490 kts 24°
2026-05-09 05:16 10.64282 -25.88005 34992 ft 490 kts 24°
2026-05-09 05:16 10.70426 -25.85141 34992 ft 490 kts 24°
2026-05-09 05:17 10.76623 -25.82252 34992 ft 490 kts 24°
2026-05-09 05:17 10.82810 -25.79366 34992 ft 490 kts 24°
2026-05-09 05:18 10.88984 -25.76485 34991 ft 490 kts 24°
2026-05-09 05:18 10.95178 -25.73589 34977 ft 492 kts 24°
2026-05-09 05:19 11.01386 -25.70685 34970 ft 492 kts 23°
2026-05-09 05:19 11.07568 -25.67796 34968 ft 492 kts 22°
2026-05-09 05:20 11.13796 -25.64895 34968 ft 492 kts 22°
2026-05-09 05:20 11.19994 -25.62011 34968 ft 492 kts 22°
2026-05-09 05:21 11.26190 -25.59118 34968 ft 492 kts 22°
2026-05-09 05:21 11.32401 -25.56212 34968 ft 492 kts 22°
2026-05-09 05:22 11.38570 -25.53323 34968 ft 492 kts 22°
2026-05-09 05:22 11.44792 -25.50407 34968 ft 492 kts 22°
2026-05-09 05:23 11.50963 -25.47513 34968 ft 492 kts 22°
2026-05-09 05:23 11.57170 -25.44602 34968 ft 492 kts 22°
2026-05-09 05:24 11.63372 -25.41691 34968 ft 492 kts 22°
2026-05-09 05:24 11.69591 -25.38771 34967 ft 492 kts 22°
2026-05-09 05:25 11.75789 -25.35859 34967 ft 492 kts 22°
2026-05-09 05:25 11.85068 -25.31463 34968 ft 492 kts 23°
2026-05-09 05:26 11.91248 -25.28537 34968 ft 492 kts 23°
2026-05-09 05:26 11.97460 -25.25607 34968 ft 492 kts 23°
2026-05-09 05:27 12.03614 -25.22707 34968 ft 492 kts 23°
2026-05-09 05:27 12.09816 -25.19786 34968 ft 492 kts 22°
2026-05-09 05:28 12.16033 -25.16865 34967 ft 492 kts 22°
2026-05-09 05:28 12.22233 -25.13950 34968 ft 492 kts 22°
2026-05-09 05:29 12.28431 -25.11029 34968 ft 493 kts 22°
2026-05-09 05:29 12.34628 -25.08104 34968 ft 493 kts 22°
2026-05-09 05:30 12.40852 -25.05165 34968 ft 493 kts 22°
2026-05-09 05:30 12.47044 -25.02239 34968 ft 493 kts 22°
2026-05-09 05:31 12.53257 -24.99301 34968 ft 493 kts 21°
2026-05-09 05:31 12.59437 -24.96377 34968 ft 493 kts 21°
2026-05-09 05:32 12.65643 -24.93441 34968 ft 492 kts 21°
2026-05-09 05:32 12.71855 -24.90501 34968 ft 493 kts 21°
2026-05-09 05:33 12.78054 -24.87565 34968 ft 493 kts 21°
2026-05-09 05:33 12.84257 -24.84624 34968 ft 493 kts 21°
2026-05-09 05:34 12.90433 -24.81695 34968 ft 492 kts 21°
2026-05-09 05:34 12.96627 -24.78755 34968 ft 492 kts 21°
2026-05-09 05:35 13.02835 -24.75803 34968 ft 490 kts 21°
2026-05-09 05:35 13.08947 -24.72895 34968 ft 487 kts 20°
2026-05-09 05:36 13.14938 -24.70055 34968 ft 483 kts 20°
2026-05-09 05:36 13.21019 -24.67178 34968 ft 483 kts 20°
2026-05-09 05:37 13.27118 -24.64283 34968 ft 484 kts 20°
2026-05-09 05:37 13.33182 -24.61397 34967 ft 483 kts 20°
2026-05-09 05:38 13.39245 -24.58508 34967 ft 483 kts 20°
2026-05-09 05:38 13.45352 -24.55598 34968 ft 483 kts 20°
2026-05-09 05:39 13.51451 -24.52690 34968 ft 483 kts 20°
2026-05-09 05:39 13.57489 -24.49808 34967 ft 483 kts 20°
2026-05-09 05:40 13.63577 -24.46901 34967 ft 483 kts 20°
2026-05-09 05:40 13.69654 -24.43997 34967 ft 483 kts 20°
2026-05-09 05:41 13.75723 -24.41073 34968 ft 483 kts 20°
2026-05-09 05:41 13.81787 -24.38142 34968 ft 483 kts 20°
2026-05-09 05:42 13.87851 -24.35212 34968 ft 483 kts 20°
2026-05-09 05:42 13.93916 -24.32257 34967 ft 484 kts 21°
2026-05-09 05:43 13.99992 -24.29294 34968 ft 483 kts 20°
2026-05-09 05:43 14.06055 -24.26352 34968 ft 483 kts 20°
2026-05-09 05:44 14.12124 -24.23414 34968 ft 484 kts 20°
2026-05-09 05:44 14.18211 -24.20476 34968 ft 483 kts 20°
2026-05-09 05:45 14.24276 -24.17544 34968 ft 484 kts 20°
2026-05-09 05:45 14.30338 -24.14607 34967 ft 483 kts 20°
2026-05-09 05:46 14.36417 -24.11658 34968 ft 483 kts 20°
2026-05-09 05:46 14.42481 -24.08714 34968 ft 484 kts 20°
2026-05-09 05:47 14.48556 -24.05763 34967 ft 483 kts 20°
2026-05-09 05:47 14.54634 -24.02809 34967 ft 483 kts 20°
2026-05-09 05:48 14.60682 -23.99868 34968 ft 483 kts 20°
2026-05-09 05:48 14.66718 -23.96930 34968 ft 483 kts 20°
2026-05-09 05:49 14.72821 -23.93958 34968 ft 483 kts 20°
2026-05-09 05:49 14.78879 -23.91007 34968 ft 483 kts 20°
2026-05-09 05:50 14.84954 -23.88045 34968 ft 483 kts 20°
2026-05-09 05:50 14.90983 -23.85102 34968 ft 483 kts 20°
2026-05-09 05:51 14.97041 -23.82138 34968 ft 481 kts 20°
2026-05-09 05:51 15.03054 -23.79198 34968 ft 479 kts 19°
2026-05-09 05:52 15.09065 -23.76263 34968 ft 477 kts 19°
2026-05-09 05:52 15.15034 -23.73357 34968 ft 477 kts 19°
2026-05-09 05:53 15.21033 -23.70433 34968 ft 477 kts 19°
2026-05-09 05:53 15.27018 -23.67507 34968 ft 477 kts 19°
2026-05-09 05:54 15.33028 -23.64564 34968 ft 477 kts 19°
2026-05-09 05:54 15.39007 -23.61633 34968 ft 477 kts 19°
2026-05-09 05:55 15.44963 -23.58711 34968 ft 477 kts 19°
2026-05-09 05:55 15.50953 -23.55770 34968 ft 477 kts 19°
2026-05-09 05:56 15.56952 -23.52823 34968 ft 477 kts 19°
2026-05-09 05:56 15.62931 -23.49883 34968 ft 477 kts 19°
2026-05-09 05:57 15.68905 -23.46945 34968 ft 477 kts 19°
2026-05-09 05:57 15.74894 -23.43997 34968 ft 477 kts 19°
2026-05-09 05:58 15.80888 -23.41045 34968 ft 477 kts 19°
2026-05-09 05:58 15.86847 -23.38107 34968 ft 477 kts 19°
2026-05-09 05:59 15.92859 -23.35142 34972 ft 477 kts 19°
2026-05-09 05:59 15.98809 -23.32181 34979 ft 478 kts 19°
2026-05-09 06:00 16.04767 -23.29216 34988 ft 477 kts 19°
2026-05-09 06:00 16.10751 -23.26251 34992 ft 477 kts 19°
2026-05-09 06:01 16.16748 -23.23294 34992 ft 477 kts 19°
2026-05-09 06:01 16.22702 -23.20355 34992 ft 477 kts 19°
2026-05-09 06:02 16.28678 -23.17399 34992 ft 477 kts 19°
2026-05-09 06:02 16.34670 -23.14431 34992 ft 477 kts 19°
2026-05-09 06:03 16.40642 -23.11471 34992 ft 477 kts 19°
2026-05-09 06:03 16.46608 -23.08512 34992 ft 477 kts 19°
2026-05-09 06:04 16.52590 -23.05544 34992 ft 477 kts 19°
2026-05-09 06:04 16.58566 -23.02576 34992 ft 477 kts 19°
2026-05-09 06:05 16.64539 -22.99610 34992 ft 477 kts 19°
2026-05-09 06:05 16.70501 -22.96645 34992 ft 477 kts 19°
2026-05-09 06:06 16.76392 -22.93425 34993 ft 481 kts 23°
2026-05-09 06:06 16.82143 -22.89937 34992 ft 481 kts 24°
2026-05-09 06:07 16.87887 -22.86438 34992 ft 482 kts 23°
2026-05-09 06:07 16.93677 -22.82917 34992 ft 481 kts 23°
2026-05-09 06:08 16.99441 -22.79412 34993 ft 481 kts 22°
2026-05-09 06:08 17.05189 -22.75913 34993 ft 477 kts 22°
2026-05-09 06:09 17.10873 -22.72454 34995 ft 473 kts 21°
2026-05-09 06:09 17.16525 -22.69031 34993 ft 471 kts 21°
2026-05-09 06:10 17.22187 -22.65599 34992 ft 471 kts 21°
2026-05-09 06:10 17.27832 -22.62167 34992 ft 471 kts 21°
2026-05-09 06:11 17.33493 -22.58717 34992 ft 471 kts 21°
2026-05-09 06:11 17.39121 -22.55283 34992 ft 471 kts 21°
2026-05-09 06:12 17.44781 -22.51827 34992 ft 471 kts 21°
2026-05-09 06:12 17.50437 -22.48370 34992 ft 471 kts 21°
2026-05-09 06:13 17.56052 -22.44936 34992 ft 471 kts 21°
2026-05-09 06:13 17.61697 -22.41482 34992 ft 471 kts 21°
2026-05-09 06:14 17.67344 -22.38023 34992 ft 471 kts 21°
2026-05-09 06:14 17.73006 -22.34552 34988 ft 471 kts 22°
2026-05-09 06:15 17.78630 -22.31071 34992 ft 472 kts 22°
2026-05-09 06:15 17.84270 -22.27587 34992 ft 471 kts 22°
2026-05-09 06:16 17.89904 -22.24118 34992 ft 471 kts 22°
2026-05-09 06:16 17.95510 -22.20669 34992 ft 471 kts 21°
2026-05-09 06:17 18.01181 -22.17179 34992 ft 471 kts 21°
2026-05-09 06:17 18.06790 -22.13726 34992 ft 471 kts 21°
2026-05-09 06:18 18.12466 -22.10234 34992 ft 474 kts 21°
2026-05-09 06:18 18.18139 -22.06751 34992 ft 475 kts 21°
2026-05-09 06:19 18.23824 -22.03249 34992 ft 475 kts 22°
2026-05-09 06:19 18.29533 -21.99725 34992 ft 475 kts 22°
2026-05-09 06:20 18.35192 -21.96228 34992 ft 475 kts 22°
2026-05-09 06:20 18.40899 -21.92699 34992 ft 475 kts 22°
2026-05-09 06:21 18.46580 -21.89183 34992 ft 475 kts 22°
2026-05-09 06:21 18.52235 -21.85680 34992 ft 475 kts 22°
2026-05-09 06:22 18.57912 -21.82160 34992 ft 475 kts 22°
2026-05-09 06:22 18.63614 -21.78623 34992 ft 475 kts 22°
2026-05-09 06:23 18.69270 -21.75111 34992 ft 475 kts 22°
2026-05-09 06:23 18.74968 -21.71570 34992 ft 475 kts 22°
2026-05-09 06:24 18.80607 -21.68063 34992 ft 475 kts 22°
2026-05-09 06:24 18.86303 -21.64518 34992 ft 475 kts 22°
2026-05-09 06:25 18.91963 -21.60999 34993 ft 474 kts 22°
2026-05-09 06:25 18.97630 -21.57476 34993 ft 472 kts 24°
2026-05-09 06:26 19.03261 -21.53968 34992 ft 471 kts 25°
2026-05-09 06:26 19.08851 -21.50471 34992 ft 470 kts 25°
2026-05-09 06:27 19.14476 -21.46956 34992 ft 470 kts 25°
2026-05-09 06:27 19.20102 -21.43447 34992 ft 470 kts 25°
2026-05-09 06:28 19.25730 -21.39929 34992 ft 470 kts 25°
2026-05-09 06:28 19.31323 -21.36427 34992 ft 470 kts 25°
2026-05-09 06:29 19.36935 -21.32896 34991 ft 471 kts 26°
2026-05-09 06:29 19.42530 -21.29356 34992 ft 470 kts 26°
2026-05-09 06:30 19.48149 -21.25814 34992 ft 470 kts 26°
2026-05-09 06:30 19.53737 -21.22299 34992 ft 470 kts 25°
2026-05-09 06:31 19.59361 -21.18760 34992 ft 470 kts 25°
2026-05-09 06:31 19.64953 -21.15240 34992 ft 470 kts 25°
2026-05-09 06:32 19.70588 -21.11691 34992 ft 470 kts 25°
2026-05-09 06:33 19.79002 -21.06384 34992 ft 471 kts 25°
2026-05-09 06:33 19.84610 -21.02844 34992 ft 472 kts 25°
2026-05-09 06:34 19.93039 -20.97518 34992 ft 473 kts 25°
2026-05-09 06:34 19.98720 -20.93925 34992 ft 474 kts 25°
2026-05-09 06:35 20.04351 -20.90361 34993 ft 475 kts 25°
2026-05-09 06:35 20.10015 -20.86773 35000 ft 476 kts 25°
2026-05-09 06:36 20.15712 -20.83176 35009 ft 476 kts 25°
2026-05-09 06:36 20.21357 -20.79605 35017 ft 476 kts 25°
2026-05-09 06:37 20.27023 -20.76009 35020 ft 476 kts 25°
2026-05-09 06:37 20.32672 -20.72418 35020 ft 476 kts 25°
2026-05-09 06:38 20.38332 -20.68814 35021 ft 476 kts 25°
2026-05-09 06:38 20.44005 -20.65189 35021 ft 476 kts 25°
2026-05-09 06:39 20.49662 -20.61573 35021 ft 476 kts 25°
2026-05-09 06:39 20.55328 -20.57948 35020 ft 476 kts 25°
2026-05-09 06:40 20.60986 -20.54327 35020 ft 476 kts 25°
2026-05-09 06:40 20.66631 -20.50711 35020 ft 476 kts 25°
2026-05-09 06:41 20.72284 -20.47086 35020 ft 476 kts 25°
2026-05-09 06:41 20.77938 -20.43458 35020 ft 476 kts 25°
2026-05-09 06:42 20.83580 -20.39834 35020 ft 476 kts 25°
2026-05-09 06:42 20.89218 -20.36210 35020 ft 476 kts 25°
2026-05-09 06:43 20.94873 -20.32556 35020 ft 476 kts 25°
2026-05-09 06:43 21.00497 -20.28906 35022 ft 471 kts 25°
2026-05-09 06:44 21.06091 -20.25293 35022 ft 474 kts 26°
2026-05-09 06:44 21.11698 -20.21678 35023 ft 467 kts 27°
2026-05-09 06:45 21.17215 -20.18126 35021 ft 465 kts 27°